Regional Weather Roundup
Issued by NWS Sioux Falls, SD

Home | Current Version | Previous Version | Text Only | Print | Product List | Glossary Off
Versions: 1 2 3 4 5 6 7 8 9 10 11 12 13 14 15 16 17 18 19 20 21 22 23 24 25 26 27 28 29 30 31 32 33 34 35 36 37 38 39 40 41 42 43 44 45 46 47 48 49 50

000
ASUS43 KFSD 240802
RWRFSD

WEATHER ROUNDUP FOR SE SOUTH DAKOTA/SW MINNESOTA/NW IOWA
NATIONAL WEATHER SERVICE SIOUX FALLS SD
200 AM CST TUE JAN 24 2017

NOTE: "FAIR" INDICATES FEW OR NO CLOUDS BELOW 12,000 FEET WITH NO
SIGNIFICANT WEATHER AND OR OBSTRUCTIONS TO VISIBILITY.


SDZ038>040-050-052>070-240900-
SOUTHEAST SOUTH DAKOTA

CITY           SKY/WX    TMP DP  RH WIND       PRES   REMARKS
BROOKINGS      CLOUDY    29  28  96 S7        29.79S WCI  22
CHAMBERLAIN    CLOUDY    32  31  98 E7        29.74F FOG     WCI  25
HURON          CLOUDY    31  29  92 E7        29.80S WCI  24
MADISON        CLOUDY    28  28 100 SE9         N/A  WCI  20
MITCHELL       CLOUDY    32  30  92 E8        29.79S WCI  25
SIOUX FALLS    CLOUDY    32  30  92 E6        29.80S WCI  26
WINNER         CLOUDY    31  29  92 E8        29.71F WCI  23
YANKTON        CLOUDY    30  27  86 SE9       29.78R WCI  22
$$

MNZ071-072-080-081-089-090-097-098-240900-
SOUTHWEST MINNESOTA

CITY           SKY/WX    TMP DP  RH WIND       PRES   REMARKS
FAIRMONT       CLOUDY    31  29  92 E3        29.84F
JACKSON        CLOUDY    30  28  93 CALM      29.83S
MARSHALL       CLOUDY    31  28  89 E5        29.85R WCI  26
MONTEVIDEO     CLOUDY    30  30 100 CALM      29.87S
PIPESTONE      CLOUDY    30  30 100 SE6       29.79S FOG     WCI  24
REDWOOD FALLS  CLOUDY    32  27  81 CALM      29.85S
TRACY          CLOUDY    32  29  90 SE5       29.83F WCI  27
WINDOM         CLOUDY    30  28  93 CALM      29.83S
WORTHINGTON    CLOUDY    31  29  92 SE7       29.81F WCI  24
$$

IAZ001>003-012>014-020>022-031-032-NEZ013-014-SDZ071-240900-
NORTHWEST IOWA

CITY           SKY/WX    TMP DP  RH WIND       PRES   REMARKS
CHEROKEE       CLOUDY    32  31  96 SE8       29.82S WCI  24
DENISON        CLOUDY    30  28  93 E7        29.80S WCI  23
ESTHERVILLE    CLOUDY    30  30 100 CALM      29.82F
LE MARS        CLOUDY    32  30  93 SE8       29.81F WCI  25
ORANGE CITY    CLOUDY    30  30 100 SE3       29.80S
SHELDON        CLOUDY    32  32 100 SE8       29.80S WCI  25
SIOUX CITY     CLOUDY    32  29  88 SE9       29.80F WCI  24
SPENCER        CLOUDY    32  30  92 SE7       29.82F WCI  26
STORM LAKE     CLOUDY    30  30 100 S12       29.81S WCI  21
$$

ABBREVIATIONS USED IN REMARKS
   TC - TEMPERATURE IN CELSIUS
  WCI - WIND CHILL INDEX
   HX - HEAT INDEX
  VSB - VISIBILITY





USA.gov is the U.S. government's official web portal to all federal, state and local government web resources and services.